ONEWEB-0007 (44060 NORAD) Tracking and Keplerian Element Data

This shows tracking and keplerian element data for the satellite.

Feedback or suggestion? Click here.




ElementValue
Catalog44060
NameONEWEB-0007
Epoch Orbit379
Epoch Day86.71736534
Epoch Year2019
RAAN64.3224
Inclination87.7737
Eccentricity0.0016456
Argument of Perigee161.3422
Mean Anonmoly198.8346
Mean Motion13.70212552
Decay Rate4.1E-07
L11 44060U 19010D 19086.71736534 .00000041 00000-0 29120-4 0 9998
L22 44060 87.7737 64.3224 0016456 161.3422 198.8346 13.70212552 3793

Live tracking and technical data element details for ONEWEB-0007 (NORAD 44060). ONEWEB-0007 can be tracked NOW for your location showing map with azimuth and elevation plus other details from your city location.

Track the satellite on the map from your city or location and see movement details for azimuth, elevation, latitude, longitude, range, height, and movement on the map or in text.







IsCatalogInMostPopularTable: catalog: 44060, numindb: 113
Update: records affected: 1



GetName: 44060 ONEWEB-0007

Hit Count: updated at: Tue, 16 Jul 2019 15:26:37 GMT